Regional Weather Roundup
Issued by NWS

Home | Current Version | Previous Version | Graphics & Text | Print | Product List | Glossary On
Versions: 1 2 3 4 5 6 7 8 9 10 11 12 13 14 15 16 17 18 19 20 21 22 23 24 25 26 27 28 29 30 31 32 33 34 35 36 37 38 39 40 41 42
000
ASUS45 KPSR 261210
RWRAZ

ARIZONA REGIONAL HOURLY WEATHER ROUNDUP
NATIONAL WEATHER SERVICE TUCSON AZ
500 AM MST FRI MAY 26 2017

NOTE: FAIR INDICATES FEW OR NO CLOUDS BELOW 12,000 FEET WITH NO
SIGNIFICANT WEATHER AND/OR OBSTRUCTIONS TO VISIBILITY.

AZZ001>003-036-261300-
NORTHWEST ARIZONA

CITY           SKY/WX    TMP DP  RH WIND       PRES   REMARKS
BULLHEAD CITY  CLEAR     75  34  22 S10       29.67R
KINGMAN        CLEAR     64  30  27 SE18      29.79R
6HR MIN TEMP:  64; 6HR MAX TEMP:  74;

$$

AZZ004>008-015-016-018-261300-
NORTH CENTRAL ARIZONA

CITY           SKY/WX    TMP DP  RH WIND       PRES   REMARKS
GRAND CANYON   CLEAR     43  22  43 CALM      29.98R
6HR MIN TEMP:  43; 6HR MAX TEMP:  56;

WILLIAMS       SUNNY     48  21  34 SE14      29.98R
PRESCOTT       CLEAR     56  24  29 SE7       29.93S
6HR MIN TEMP:  51; 6HR MAX TEMP:  66;

FLAGSTAFF      CLEAR     48  19  31 SW13      30.01S
6HR MIN TEMP:  48; 6HR MAX TEMP:  57;

PAYSON         SUNNY     59  19  21 VRB5      30.01R
PAGE           PTCLDY    65  23  20 CALM      29.80R
6HR MIN TEMP:  65; 6HR MAX TEMP:  77;

$$

AZZ009>014-017-261300-
NORTHEAST ARIZONA

CITY           SKY/WX    TMP DP  RH WIND       PRES   REMARKS
WINSLOW        CLEAR     42  17  36 SW5       29.94R
6HR MIN TEMP:  42; 6HR MAX TEMP:  66;

SAINT JOHNS    CLEAR     61  15  16 SW10G17   29.99S
6HR MIN TEMP:  54; 6HR MAX TEMP:  66;

WINDOW ROCK    CLEAR     53  15  22 S12       30.05R
6HR MIN TEMP:  47; 6HR MAX TEMP:  59;

SHOW LOW       CLEAR     50  14  23 S17       30.02S
$$

AZZ023-261300-
GREATER PHOENIX AREA

CITY           SKY/WX    TMP DP  RH WIND       PRES   REMARKS
PHOENIX        PTCLDY    74  29  19 S13       29.77R
6HR MIN TEMP:  74; 6HR MAX TEMP:  85;

BUCKEYE        SUNNY     64  36  34 NE5       29.79R
LUKE AFB       CLEAR     70  36  28 W8        29.77R
6HR MIN TEMP:  70; 6HR MAX TEMP:  79;

DEER VALLEY    CLEAR     71  31  22 E5        29.80R
6HR MIN TEMP:  67; 6HR MAX TEMP:  81;

SCOTTSDALE     CLEAR     72  29  20 E3        29.82R
6HR MIN TEMP:  72; 6HR MAX TEMP:  83;

$$

AZZ027-028-261300-
SOUTHWEST MARICOPA COUNTY AND PINAL COUNTY

CITY           SKY/WX    TMP DP  RH WIND       PRES   REMARKS
CASA GRANDE    CLEAR     71  27  19 S7        29.83R
6HR MIN TEMP:  70; 6HR MAX TEMP:  80;

$$

AZZ503-504-507>509-261300-
SOUTHEAST ARIZONA

CITY           SKY/WX    TMP DP  RH WIND       PRES   REMARKS
TUCSON         CLEAR     73  32  22 SW7       29.91R
6HR MIN TEMP:  73; 6HR MAX TEMP:  80;

DAVIS-MONTHAN  CLEAR     67  31  25 SE5       29.91R
6HR MIN TEMP:  66; 6HR MAX TEMP:  79;

NOGALES        CLEAR     64  28  25 SE9       29.98S
6HR MIN TEMP:  62; 6HR MAX TEMP:  71;

SIERRA VISTA   CLEAR     64  21  19 SE3       30.04S
6HR MIN TEMP:  62; 6HR MAX TEMP:  73;

DOUGLAS        PTCLDY    63  27  25 W9        30.02S
6HR MIN TEMP:  61; 6HR MAX TEMP:  74; 6HR PCP: TRACE;

$$

AZZ020-021-025-026-031-261300-
SOUTHWEST ARIZONA

CITY           SKY/WX    TMP DP  RH WIND       PRES   REMARKS
YUMA           CLEAR     67  39  35 NE3       29.74R
6HR MIN TEMP:  67; 6HR MAX TEMP:  76;

$$

CAZ031-033-041-043-047-048-061-261300-
SOUTHERN CALIFORNIA

CITY           SKY/WX    TMP DP  RH WIND       PRES   REMARKS
DOWNTOWN L.A.  CLOUDY    62  54  74 CALM      29.92S
6HR MIN TEMP:  61; 6HR MAX TEMP:  63;

L.A. AIRPORT   CLOUDY    61  53  75 CALM      29.93R
6HR MIN TEMP:  61; 6HR MAX TEMP:  62;

SAN DIEGO      CLOUDY    64  50  60 SW6       29.96R
6HR MIN TEMP:  63; 6HR MAX TEMP:  65;

BURBANK        CLOUDY    59  48  67 S6        29.92S
6HR MIN TEMP:  59; 6HR MAX TEMP:  59;

ONTARIO        CLOUDY    58  47  66 W8        29.93R
6HR MIN TEMP:  58; 6HR MAX TEMP:  60;

RIVERSIDE      CLOUDY    58  50  75 VRB3      29.93R
6HR MIN TEMP:  58; 6HR MAX TEMP:  59;

PALM SPRINGS   CLEAR     65  45  48 E3        29.73R
6HR MIN TEMP:  63; 6HR MAX TEMP:  74;

EL CENTRO NAS  CLEAR     65  39  38 W18         N/A
6HR MIN TEMP:  64; 6HR MAX TEMP:  69;

IMPERIAL       LGT RAIN  64  42  44 W10       29.72R
6HR MIN TEMP:  63; 6HR MAX TEMP:  69; 6HR PCP: TRACE;

BLYTHE         CLEAR     67  44  43 S16       29.70R
6HR MIN TEMP:  67; 6HR MAX TEMP:  79;

NEEDLES        CLEAR     76  28  17 W3        29.69R
6HR MIN TEMP:  75; 6HR MAX TEMP:  88;

$$

NVZ020-UTZ003-261300-
SOUTHERN NEVADA-UTAH

CITY           SKY/WX    TMP DP  RH WIND       PRES   REMARKS
LAS VEGAS      PTCLDY    72  25  17 S12       29.63R
6HR MIN TEMP:  72; 6HR MAX TEMP:  82;

SALT LAKE CITY MOCLDY    54  38  54 E7        29.67S
6HR MIN TEMP:  53; 6HR MAX TEMP:  59;

$$

NMZ009-TXZ055-261300-
NEW MEXICO-WEST TEXAS

CITY           SKY/WX    TMP DP  RH WIND       PRES   REMARKS
ALBUQUERQUE    PTCLDY    53  12  19 SE6       30.01R
6HR MIN TEMP:  52; 6HR MAX TEMP:  69;

EL PASO        PTCLDY    73  30  20 SW10      29.97R
6HR MIN TEMP:  72; 6HR MAX TEMP:  83;

$$


........................KEY........................
SKY/WX - SKY CONDITION/WEATHER
TMP    - TEMPERATURE IN FAHRENHEIT
DP     - DEWPOINT IN FAHRENHEIT
RH     - RELATIVE HUMIDITY IN PERCENT
WIND   - DIRECTION AND SPEED IN MILES PER HOUR (MPH)
VRB    - VARIABLE WIND DIRECTION
PRES   - MEAN SEA LEVEL PRESSURE IN INCHES OF MERCURY
         F - FALLING PRESSURE   R - RISING PRESSURE
         S - STEADY PRESSURE
VSB    - VISIBILITY IN MILES
HX     - HEAT INDEX IN FAHRENHEIT
WCI    - WIND CHILL INDEX IN FAHRENHEIT
TC     - TEMPERATURE IN CELSIUS WHICH IS ALSO KNOWN AS
         TEMPERATURE IN CENTIGRADE
AFB    - AIR FORCE BASE
         LUKE AFB IS LUKE AIR FORCE BASE
         DAVIS-MONTHAN IS DAVIS-MONTHAN AIR FORCE BASE
NAS    - NAVAL AIR STATION
         EL CENTRO NAS IS EL CENTRO NAVAL AIR STATION
N/A    - NOT AVAILABLE





USA.gov is the U.S. government's official web portal to all federal, state and local government web resources and services.